ECMWFNIL_sfc_temp_015.txt.gz
Temp
42 42 42 41 41 41 40 39 38 38 38 37 37 36 36 35 34 34 33 32 32 31 30 30 30 30 30 29 28 29 28 26 27 26 26 26 26 25 27 26 26 26
41 42 42 40 39 39 39 39 38 38 37 36 36 36 35 34 34 33 32 31 31 30 30 29 29 29 28 28 27 27 26 26 25 28 26 25 26 25 26 25 25 25
40 40 40 40 40 38 38 37 37 37 36 35 34 34 33 34 32 32 32 31 30 29 29 29 28 28 28 27 27 27 27 25 25 25 26 25 25 26 25 25 25 25
40 40 41 40 39 38 37 36 35 35 34 33 33 34 34 33 32 31 30 30 29 28 28 28 28 27 27 26 26 26 25 25 25 25 25 25 25 25 25 25 26 26
40 40 40 39 38 37 36 36 35 34 34 34 33 32 32 31 31 30 29 29 29 28 28 27 27 26 26 26 26 25 25 25 24 24 24 24 25 25 25 25 24 24
38 39 38 38 37 36 36 36 36 34 34 32 32 32 32 31 31 30 29 28 28 27 27 26 26 26 26 25 25 25 25 25 24 24 24 24 24 24 26 25 24 24
38 38 37 37 36 36 36 36 35 35 34 34 32 31 31 30 29 29 28 28 27 27 26 26 25 25 26 25 25 24 24 24 24 24 23 23 24 23 24 24 24 24
38 37 37 36 35 35 35 35 34 34 33 32 32 31 30 30 29 28 28 27 27 26 26 26 25 25 25 25 24 23 23 24 24 23 23 23 23 23 23 24 24 23
37 36 36 35 34 34 34 34 33 33 32 32 31 30 30 30 29 28 27 27 26 26 25 25 25 24 24 24 24 23 23 24 24 24 23 23 23 23 23 23 22 22
36 36 35 34 34 34 34 33 32 32 31 32 30 30 29 28 28 28 27 26 26 25 25 24 24 24 24 24 24 24 24 24 24 24 24 23 23 23 22 22 21 21
36 35 35 34 34 33 33 32 31 31 31 31 30 29 28 27 27 27 26 26 25 25 24 24 24 24 23 23 23 23 24 24 24 23 23 23 22 22 22 22 21 20
36 35 34 34 33 32 32 31 31 30 30 30 30 28 27 27 26 26 26 25 25 24 23 23 23 23 23 23 22 22 22 22 22 22 22 22 22 22 22 21 21 20
35 35 34 34 33 32 31 30 30 30 29 28 28 27 26 25 25 24 24 24 23 23 23 23 23 22 21 21 20 20 21 22 21 22 22 21 22 22 22 22 21 21
35 35 34 34 33 31 30 30 29 28 27 27 26 25 25 24 24 23 22 22 22 22 22 22 21 20 19 19 19 20 20 21 21 21 21 21 21 22 22 21 22 22
35 34 33 32 31 29 28 28 27 26 25 25 24 24 24 23 23 22 21 21 21 21 21 21 21 21 20 19 18 19 19 19 20 20 21 20 20 21 21 22 22 23
34 33 32 30 29 28 27 27 25 24 23 22 23 22 22 21 21 21 21 20 19 20 20 21 21 21 22 24 23 19 19 18 18 18 19 20 20 20 21 23 23 23
32 31 30 28 28 27 25 24 24 23 22 21 21 19 19 18 19 19 19 19 19 19 19 20 20 21 24 26 26 26 21 18 18 18 19 20 21 21 21 22 23 24
31 29 28 27 26 25 24 23 22 21 21 20 18 17 17 17 17 18 18 19 19 19 19 19 20 22 25 26 27 27 25 20 20 20 21 21 22 22 22 22 22 22
29 27 26 25 25 24 23 22 21 20 19 17 16 17 16 16 17 18 18 18 18 18 18 19 19 24 26 27 27 27 28 26 22 22 21 21 22 22 22 22 22 21
28 26 26 25 24 23 22 21 20 20 18 17 16 16 16 17 16 16 17 17 18 18 18 19 19 23 26 27 27 27 27 27 23 22 22 22 22 22 22 21 21 21
28 26 26 24 23 22 21 20 20 19 17 16 16 16 15 15 15 14 15 16 16 17 17 18 18 23 25 26 26 26 27 27 23 22 22 21 21 21 22 22 22 22
27 26 25 23 22 20 19 19 19 18 16 16 15 14 14 14 15 15 14 15 16 16 16 16 18 23 24 25 25 26 26 24 22 21 20 20 19 21 22 22 23 23
27 25 24 22 21 19 19 19 18 16 16 15 14 14 13 13 14 14 15 15 15 15 15 15 15 21 24 24 25 25 25 21 21 20 20 19 19 21 21 22 23 23
26 25 23 21 20 19 19 19 18 16 15 15 14 13 13 14 14 14 15 15 15 14 14 13 13 18 23 23 24 25 24 20 20 19 18 19 19 20 21 21 22 24
25 24 23 21 20 20 19 18 16 15 15 14 15 14 14 14 14 13 13 14 14 14 17 14 13 16 21 22 23 24 24 21 19 17 17 18 19 19 21 21 22 23
25 24 23 21 20 19 18 17 16 14 13 14 14 14 14 13 13 12 12 12 13 13 15 15 13 13 17 22 23 24 25 20 19 18 17 17 19 19 18 20 21 21

ECMWFNIL_sfc_temp_021.txt.gz
Temp
43 43 43 43 43 43 42 40 40 40 40 40 39 39 38 38 37 36 36 35 35 34 34 33 32 32 32 32 32 32 31 31 30 29 29 29 28 28 28 27 27 27
42 42 42 42 41 41 41 41 40 40 40 40 40 39 38 37 37 36 36 35 35 34 33 33 32 32 32 32 31 31 30 30 29 29 29 28 28 27 28 27 27 26
42 41 41 41 42 41 41 40 40 40 40 39 39 38 38 37 36 36 36 35 34 34 33 32 32 32 32 31 31 31 30 29 29 28 29 28 27 27 27 26 26 26
41 42 42 42 42 41 40 38 38 39 39 37 38 39 38 37 36 35 35 35 34 33 33 32 32 32 31 31 31 31 30 30 30 28 28 27 27 27 26 26 26 25
41 41 41 42 41 40 39 38 38 39 38 39 38 37 36 36 35 35 35 34 34 33 32 32 32 31 31 30 30 30 29 29 28 28 28 26 26 26 26 26 25 24
41 41 41 41 41 40 39 39 39 38 38 37 37 37 36 36 35 35 34 34 33 33 32 32 31 31 30 30 30 29 29 28 27 27 27 26 25 26 26 26 25 24
41 40 40 41 40 39 39 39 39 38 38 38 36 35 36 35 35 35 34 34 33 33 32 31 31 30 30 30 29 28 28 27 26 27 26 26 25 25 25 25 25 24
41 40 40 39 39 39 38 38 38 38 38 36 36 36 36 35 35 35 34 34 33 32 32 32 31 31 30 29 29 28 27 27 26 26 26 25 25 24 24 25 25 24
40 39 39 38 38 39 38 38 38 38 37 36 36 36 35 35 35 35 34 33 33 32 32 31 31 30 30 29 29 28 27 26 26 27 26 25 25 25 24 25 24 24
39 39 38 38 38 39 38 39 39 38 37 37 36 36 35 35 35 34 34 33 33 32 32 31 31 30 30 29 29 29 28 27 27 27 26 26 25 25 24 24 24 23
39 39 38 38 38 39 39 39 38 38 36 36 36 35 35 34 34 34 33 33 32 32 32 31 31 30 29 29 29 29 29 28 27 27 26 26 26 25 25 24 23 23
39 38 38 38 38 39 39 39 38 37 36 35 36 35 34 34 34 33 33 33 33 33 32 31 31 30 29 29 29 28 28 28 27 26 26 25 25 24 24 24 23 22
38 38 39 39 39 39 39 38 37 36 35 34 35 35 34 33 33 33 33 34 33 33 32 31 30 30 29 29 28 28 27 27 26 25 25 24 24 24 24 23 23 22
39 39 39 39 39 38 37 37 36 35 34 34 33 33 33 33 33 33 33 34 33 32 32 31 30 29 29 28 28 27 26 25 25 24 23 23 23 23 23 22 22 22
39 39 39 38 37 36 36 35 35 35 34 33 33 33 34 33 33 33 32 32 32 32 31 30 30 29 29 28 27 26 26 24 23 23 23 22 22 22 22 22 21 21
38 38 37 36 36 35 35 35 34 33 32 31 32 32 32 32 32 32 32 31 30 30 30 29 29 29 30 31 30 26 25 23 22 21 22 22 21 20 20 21 21 21
36 36 36 35 36 35 34 33 33 31 31 30 30 30 30 30 30 30 30 31 30 30 28 28 29 29 31 32 32 31 26 23 21 21 21 21 21 20 19 20 21 22
35 35 34 34 34 33 33 32 32 30 29 29 29 29 29 29 30 30 30 31 30 29 28 28 28 30 32 33 33 32 28 23 22 21 20 21 21 20 20 21 21 21
33 33 33 33 33 33 32 31 30 30 29 28 28 29 29 28 29 30 30 30 30 28 28 28 27 31 32 33 33 32 30 26 21 21 20 20 21 21 21 22 22 22
32 32 32 32 32 31 31 30 29 29 29 29 28 28 28 28 28 28 28 28 28 28 27 27 26 30 33 33 33 32 31 27 20 20 20 21 21 22 22 23 23 22
31 31 31 31 31 31 30 29 29 29 28 28 28 28 28 27 27 27 27 26 26 26 25 25 25 31 33 34 33 33 32 27 19 20 20 20 22 23 23 23 24 24
28 29 30 29 30 29 28 29 28 28 28 28 28 28 27 27 27 26 26 25 25 24 24 23 24 31 33 34 34 33 32 22 19 19 20 20 21 23 23 24 25 25
30 30 29 28 28 27 27 27 27 27 27 27 26 26 25 25 25 25 26 25 24 23 23 23 22 29 33 34 34 34 30 20 19 19 20 20 20 22 23 24 25 24
29 29 29 28 27 27 27 27 26 25 26 25 25 24 24 24 24 24 24 23 22 22 23 22 21 27 33 33 34 34 28 19 20 20 19 20 20 22 23 23 24 25
28 28 29 27 26 26 26 26 25 25 25 23 24 24 23 23 22 22 21 21 22 22 24 23 20 25 32 33 34 34 27 21 21 20 19 19 20 20 22 22 22 24
26 26 27 27 26 25 24 24 22 21 21 21 21 22 21 20 20 20 19 19 20 20 21 22 20 22 29 34 34 34 29 22 21 21 19 19 20 19 19 19 21 22

ECMWFNIL_sfc_temp_024.txt.gz
Temp
42 42 43 43 43 43 42 40 40 41 40 40 40 39 39 39 38 37 37 37 36 36 35 35 34 34 34 33 32 32 31 31 31 30 30 31 30 30 30 29 29 30
41 41 41 41 41 41 42 41 40 40 40 40 40 40 39 38 38 37 37 36 36 36 35 34 34 34 33 32 32 32 31 30 30 30 30 30 30 29 30 29 29 28
40 40 40 41 42 41 41 39 39 39 40 40 39 39 39 38 37 37 37 36 36 35 35 34 34 33 33 32 32 32 31 30 30 29 29 29 29 28 29 28 28 28
40 41 41 41 41 40 39 37 37 38 38 38 39 39 38 37 37 36 36 36 36 35 34 34 33 33 32 32 31 32 31 31 30 29 28 28 28 28 27 27 27 27
40 40 40 41 40 36 35 37 38 38 38 39 37 37 37 36 36 36 35 35 35 35 34 33 33 32 32 32 31 31 30 30 29 28 28 28 27 28 27 27 27 26
38 40 40 40 39 38 37 37 38 37 37 36 38 37 37 36 36 36 35 35 35 35 34 33 32 32 32 32 31 32 31 30 29 28 28 28 27 27 28 27 27 26
39 38 39 38 37 37 38 38 37 38 38 38 35 36 36 36 36 36 36 36 35 35 34 33 32 32 32 32 31 31 31 30 29 28 28 28 27 26 27 26 26 26
38 36 36 36 37 37 38 38 37 38 38 36 37 37 36 37 36 36 36 35 35 35 34 34 33 33 32 32 31 31 30 30 29 28 28 28 27 26 26 26 26 26
36 37 36 35 36 38 38 38 39 38 38 38 38 37 37 37 37 36 36 35 35 35 34 34 33 33 33 32 32 32 31 30 29 29 29 28 27 27 26 26 25 25
36 37 36 36 36 38 38 39 39 39 38 38 38 38 36 36 37 36 36 35 35 34 34 34 33 33 33 32 33 32 32 30 29 29 29 29 28 28 27 26 25 25
37 36 36 37 37 38 39 39 39 39 38 38 38 37 37 36 36 36 36 35 35 34 34 34 34 33 33 32 32 33 32 31 30 29 29 30 29 29 28 26 26 25
37 37 37 37 38 39 39 39 38 38 38 37 37 37 36 36 36 35 36 35 35 35 35 34 34 33 33 32 32 32 32 31 30 29 29 30 29 29 28 27 26 26
36 36 38 38 39 40 40 39 38 38 37 37 36 36 36 35 35 35 35 36 36 35 35 34 34 33 33 32 32 31 31 31 29 29 29 29 29 28 28 27 27 26
37 37 37 38 39 39 38 38 38 37 37 37 36 35 36 35 35 35 35 35 35 35 35 34 34 33 32 32 32 31 31 30 30 29 28 28 27 27 27 26 26 26
39 39 39 39 38 38 37 37 37 37 37 36 35 35 36 36 36 35 34 34 34 35 34 34 33 33 33 32 31 30 30 29 29 28 28 27 26 25 25 25 25 25
37 37 38 38 37 37 37 37 36 36 35 34 34 34 34 34 34 34 34 33 33 34 34 34 33 34 33 35 34 31 30 29 28 27 27 27 25 24 24 24 24 24
36 35 35 35 36 37 36 36 35 35 34 33 33 32 31 32 32 32 33 33 33 33 33 33 33 33 34 36 36 35 31 28 27 26 26 26 25 24 23 23 23 24
34 33 33 33 33 33 34 34 34 33 32 32 31 31 31 30 31 32 32 32 33 33 33 33 33 34 36 36 36 36 34 29 28 26 25 26 25 25 24 23 23 22
34 32 31 31 31 31 31 31 31 31 31 30 30 31 31 30 31 31 31 32 32 32 32 32 32 35 36 36 36 36 36 32 28 26 25 25 26 25 25 24 23 22
33 32 31 30 29 29 29 29 29 30 31 31 30 30 29 30 30 30 30 31 31 32 32 32 32 34 36 36 36 36 36 33 27 26 25 25 25 25 25 24 22 22
33 32 31 30 29 27 26 26 27 28 28 29 29 30 29 29 30 29 29 29 29 30 30 30 31 34 36 36 36 36 36 34 27 25 25 24 25 25 25 24 23 23
32 31 30 30 29 27 25 26 26 26 27 27 27 27 28 29 29 29 29 29 29 29 29 29 30 34 35 36 36 36 36 30 26 24 23 23 23 25 25 24 24 24
33 31 30 29 29 27 27 26 26 26 26 26 25 26 27 28 28 29 29 29 28 28 27 28 27 32 35 35 36 36 35 28 24 23 23 22 22 23 24 24 24 24
32 31 31 30 29 28 27 27 26 26 27 26 26 27 27 27 28 27 27 27 27 27 27 27 26 30 34 35 36 36 34 26 23 22 21 21 21 22 23 23 24 26
32 32 31 30 30 29 29 27 28 28 28 26 26 27 27 27 26 26 25 25 26 26 28 27 25 27 34 35 35 36 32 24 23 21 20 20 21 21 22 23 24 26
32 31 31 30 30 30 30 29 28 27 26 26 26 26 26 25 24 24 24 24 24 24 25 26 24 24 30 34 35 36 34 23 22 21 20 20 20 20 20 21 23 24

ECMWFNIL_sfc_temp_027.txt.gz
Temp
42 43 44 45 45 46 45 44 44 44 44 44 44 44 44 44 44 42 42 43 42 42 42 42 42 41 41 40 40 40 40 39 40 40 39 38 39 38 37 38 38 40
41 41 42 42 42 43 44 43 43 43 44 44 45 45 44 44 43 42 42 42 42 42 42 41 41 41 40 40 39 39 39 39 39 38 38 37 38 38 38 38 38 39
40 40 40 41 42 41 42 42 42 42 43 43 43 44 43 43 42 42 42 41 41 41 41 41 41 40 40 40 39 39 39 38 38 38 38 37 38 37 38 38 38 36
39 39 40 40 41 41 41 41 41 41 41 41 42 42 42 41 42 41 41 40 41 40 40 40 40 40 40 39 39 39 39 39 39 38 37 38 38 37 37 37 37 36
39 39 40 40 40 40 40 40 41 40 40 42 41 41 41 40 40 40 40 40 40 40 40 39 40 39 39 39 38 38 39 38 39 38 37 37 37 36 37 36 35 35
38 39 40 40 40 40 41 40 41 41 40 40 41 41 41 40 41 40 40 39 40 40 40 39 39 39 38 38 38 38 38 38 38 36 36 37 36 36 36 35 35 35
38 39 39 39 39 40 40 41 41 40 41 42 41 40 41 40 40 40 40 40 40 39 40 39 38 38 38 38 38 38 38 38 37 35 36 37 36 34 35 34 35 35
38 38 38 39 39 39 39 40 40 41 41 41 40 41 40 40 40 40 40 40 40 39 40 39 39 38 38 38 37 37 37 38 37 35 36 36 36 33 34 33 34 34
37 37 38 38 38 38 39 40 40 41 41 40 41 41 40 40 41 40 40 40 39 39 39 39 39 38 38 37 37 37 37 37 37 35 35 36 34 34 33 33 33 33
37 37 37 37 37 38 39 40 40 41 40 40 40 41 40 39 40 40 40 39 39 39 39 39 39 38 38 38 37 38 38 38 37 36 36 36 35 34 33 33 32 32
39 39 38 38 38 38 39 40 40 41 40 40 40 40 40 40 39 40 39 39 38 39 39 39 39 38 38 37 38 38 38 38 38 37 36 37 37 36 34 33 32 32
39 39 39 39 39 39 39 39 40 40 40 40 40 40 40 40 39 38 39 39 39 39 39 39 39 39 38 38 37 38 38 38 38 37 36 36 37 36 35 34 33 33
38 38 38 38 39 39 40 40 40 39 39 38 38 38 39 38 38 38 37 38 39 38 38 39 39 38 38 38 38 37 37 37 37 37 36 36 36 36 36 35 34 34
38 38 38 38 38 38 38 39 39 39 39 39 38 38 37 38 38 37 38 38 38 38 39 39 39 38 38 38 38 37 37 37 37 36 36 36 36 36 36 35 34 34
38 38 38 38 37 37 37 37 38 38 38 38 38 37 38 38 38 38 37 37 37 38 38 38 38 38 38 38 37 37 37 36 36 36 35 35 35 35 35 34 34 34
37 37 36 36 36 36 36 36 36 36 36 35 36 36 37 37 37 37 37 37 36 37 37 38 38 38 37 37 37 37 36 35 34 34 34 35 34 33 33 33 33 33
36 36 36 35 35 35 34 34 34 34 34 34 34 34 35 35 35 36 36 37 36 36 36 37 37 38 37 38 38 38 36 35 33 33 33 34 34 33 32 32 32 32
35 35 34 34 34 33 33 33 33 33 33 33 33 34 34 33 33 34 36 36 36 36 36 37 37 37 38 38 39 39 37 35 33 32 32 33 33 33 33 32 31 31
35 34 33 33 33 33 32 31 31 31 32 32 32 34 33 32 33 33 34 35 35 35 36 36 36 38 38 38 38 39 38 36 34 32 32 31 33 33 32 32 31 30
34 33 32 32 33 32 32 30 30 30 31 31 31 32 32 32 32 32 32 33 34 34 35 36 36 37 38 38 38 38 39 37 34 32 32 31 32 32 32 32 30 29
33 32 32 32 32 32 31 31 31 30 29 30 31 31 31 31 32 31 31 31 32 33 33 34 35 36 37 38 38 38 39 38 34 33 32 31 32 32 32 31 31 30
32 31 31 31 32 31 31 31 31 31 30 30 29 30 30 30 30 30 30 30 31 31 31 31 33 36 37 37 38 38 39 36 34 32 31 30 30 31 31 31 31 30
30 30 29 30 31 31 31 30 31 31 31 30 28 29 29 29 28 29 30 30 29 29 29 30 31 34 36 37 37 38 37 35 34 32 31 29 29 30 30 30 30 29
28 28 28 30 31 30 30 31 31 31 30 30 28 28 28 28 28 28 28 29 28 28 29 29 30 32 35 36 37 38 37 34 34 32 30 29 28 29 29 28 29 28
26 27 28 30 30 29 29 28 29 29 30 29 28 27 27 28 27 27 27 27 27 28 29 29 29 30 34 35 36 37 37 35 34 31 29 28 27 26 27 27 27 28
24 25 28 29 28 27 27 28 28 28 28 29 28 27 26 27 26 26 25 26 27 26 26 28 28 29 30 34 35 36 37 35 33 30 28 27 26 25 24 24 25 25

ECMWFNIL_sfc_temp_030.txt.gz
Temp
50 51 51 53 54 55 55 54 55 54 54 55 54 54 53 53 53 52 51 51 51 51 51 52 52 51 51 51 51 52 52 51 51 51 50 50 50 50 49 50 51 53
49 49 50 50 51 52 53 54 54 53 54 54 54 55 54 53 52 51 50 50 50 50 51 51 51 51 50 50 50 50 50 50 49 49 49 48 49 49 49 49 50 51
48 48 49 48 49 50 51 52 52 52 53 54 54 54 53 53 52 51 51 50 50 50 50 50 50 50 49 49 49 48 49 49 48 49 48 48 49 49 49 49 50 49
47 48 48 48 49 49 50 50 50 51 51 51 51 52 52 51 51 50 50 48 49 49 49 49 49 49 48 48 48 48 48 48 49 49 48 48 48 48 49 49 49 49
47 47 48 48 48 49 49 48 49 50 50 50 51 51 51 50 49 49 49 48 48 48 48 48 48 48 48 47 47 47 47 47 48 48 47 47 48 47 48 48 48 47
47 47 47 47 47 47 48 48 49 49 50 49 49 51 50 50 49 49 49 48 48 48 47 48 47 47 47 47 47 47 47 46 47 46 46 46 47 47 46 47 47 47
45 46 46 47 47 47 47 47 48 49 49 49 50 49 50 49 49 49 49 48 48 47 47 47 46 46 47 46 46 46 46 46 46 46 45 46 47 46 46 46 46 46
44 45 45 46 45 46 47 47 48 48 48 48 48 48 49 48 48 48 48 48 47 47 46 47 47 46 46 46 45 45 45 44 44 45 45 45 45 45 46 45 46 46
43 43 43 44 44 44 45 45 46 47 48 47 47 48 49 48 48 48 47 48 47 46 46 46 46 46 46 45 44 44 44 44 43 44 44 43 43 44 45 45 44 44
45 44 43 42 41 42 43 44 45 46 46 46 46 47 46 48 48 47 47 47 46 46 45 45 45 46 46 45 44 44 44 44 44 43 43 43 43 43 44 44 43 43
45 45 44 43 42 42 42 43 44 46 46 46 47 46 46 47 47 47 46 46 44 44 43 44 44 45 44 45 45 45 44 44 44 44 43 43 43 43 42 43 42 42
43 43 43 43 42 42 41 42 42 43 44 45 46 45 46 46 46 46 45 44 44 44 44 43 44 43 43 43 44 44 43 43 44 44 44 44 43 41 41 41 40 40
43 42 42 42 42 42 42 41 41 41 42 43 44 44 44 44 45 45 45 43 43 43 43 43 43 43 43 43 43 43 41 41 42 43 43 44 43 42 42 41 40 39
43 43 42 42 42 42 42 42 41 41 41 42 42 43 42 43 43 43 44 43 42 42 43 43 43 43 43 43 42 42 41 41 41 40 41 42 42 42 42 42 41 39
43 43 43 43 42 41 41 40 40 40 39 40 41 41 41 42 42 42 42 42 43 42 42 42 41 42 43 43 42 42 41 40 40 40 40 40 40 40 40 40 41 40
42 42 42 41 41 40 40 40 39 39 38 37 38 39 40 41 41 41 41 41 41 42 43 41 41 41 39 39 40 41 41 40 40 38 38 39 39 39 38 39 39 39
41 41 41 39 40 40 37 37 38 37 36 37 37 37 37 39 39 40 40 40 40 41 41 42 41 40 39 40 40 40 40 40 38 37 38 39 39 38 37 38 39 40
39 39 38 37 37 36 36 36 36 35 35 35 36 36 36 36 37 38 39 39 38 38 39 40 41 39 40 40 40 40 40 38 38 37 37 38 37 37 38 38 39 39
38 36 35 34 34 35 35 35 35 35 35 35 35 36 36 35 37 37 37 38 38 37 37 38 39 39 40 40 40 40 40 39 37 37 36 37 37 37 38 38 38 38
36 33 33 32 33 33 34 34 35 34 35 36 36 35 35 35 35 35 35 36 37 37 37 38 38 38 39 39 39 39 40 39 37 36 36 36 38 37 37 37 38 37
33 32 31 30 30 31 32 33 34 34 34 34 35 35 34 34 35 34 33 33 34 35 35 35 36 37 38 38 39 39 39 39 37 36 36 36 38 38 37 37 37 37
32 30 29 28 29 28 29 31 33 33 32 33 34 34 35 35 34 34 33 33 34 34 34 33 36 36 37 37 38 38 39 37 37 36 36 35 36 37 37 37 37 37
31 29 27 26 27 26 27 30 31 30 30 32 31 32 32 33 32 33 34 33 33 33 32 32 34 35 36 36 37 37 37 36 36 36 36 35 35 37 36 36 36 36
29 27 25 25 25 24 26 28 30 29 28 29 29 29 29 30 31 32 32 33 32 32 32 32 32 34 35 36 36 37 36 35 36 36 35 35 36 36 36 35 36 34
28 26 25 24 23 24 25 26 26 25 26 27 27 27 27 29 30 31 31 32 32 32 32 32 31 33 34 35 35 36 36 35 35 35 34 34 35 35 35 35 35 34
26 24 23 22 22 23 24 24 24 24 23 23 23 25 25 27 29 30 29 30 31 31 31 32 32 32 33 34 35 35 36 35 35 35 34 33 34 34 32 32 33 32

ECMWFNIL_sfc_temp_033.txt.gz
Temp
50 50 51 51 52 53 53 53 55 54 55 55 55 56 56 57 57 55 54 54 54 54 54 54 54 53 53 54 54 54 54 53 53 53 52 52 52 51 51 52 53 55
48 49 50 50 50 51 52 52 52 53 53 54 54 55 56 56 56 55 54 53 53 53 53 53 53 53 53 52 52 51 52 52 51 52 51 50 51 51 50 50 51 53
48 47 48 47 48 48 49 50 51 51 52 52 53 54 53 55 54 55 54 53 52 52 52 52 52 52 52 51 51 50 50 50 50 51 50 49 50 50 50 50 51 50
47 47 47 47 47 47 48 48 48 50 50 50 51 52 53 52 53 53 52 51 51 51 51 51 51 51 50 50 49 49 49 49 50 50 49 49 49 49 49 50 50 50
46 47 47 48 47 48 47 47 47 47 47 49 49 50 51 51 50 50 50 50 50 49 50 49 49 49 49 49 48 48 48 48 48 49 48 48 49 48 48 49 48 48
46 47 47 47 47 47 47 47 47 47 46 47 47 48 48 48 48 48 49 49 49 49 48 48 48 48 48 48 47 47 47 47 48 47 47 47 47 48 47 47 47 47
45 45 45 46 46 46 46 46 47 47 47 46 47 47 48 47 47 47 48 48 48 48 48 47 47 47 47 47 47 46 47 46 46 46 46 46 47 47 47 47 47 46
45 45 45 45 44 44 44 44 45 46 46 47 46 47 47 47 47 46 46 47 47 47 47 47 47 47 47 47 46 45 45 45 45 45 45 45 45 45 46 46 46 45
45 45 45 44 43 43 43 43 43 44 45 44 45 46 46 46 46 46 46 46 46 46 46 46 47 47 47 46 46 45 45 45 44 45 44 44 44 45 45 46 45 45
44 44 44 44 44 44 43 43 43 43 43 43 44 43 43 43 44 45 45 45 44 45 45 45 46 45 45 46 45 45 44 44 45 44 44 44 44 44 45 45 45 44
44 43 43 43 43 43 43 43 43 43 43 42 42 42 43 43 42 42 42 43 42 43 44 44 44 44 44 44 45 44 44 44 44 44 44 44 44 44 43 45 45 44
43 43 42 43 42 42 43 43 42 42 41 41 42 41 42 42 43 42 42 42 42 41 42 42 43 43 43 43 43 44 44 44 44 44 44 44 44 44 44 44 44 44
43 43 43 42 42 42 43 42 42 41 40 40 41 40 41 41 42 42 43 43 43 43 42 41 41 42 42 42 42 43 43 43 43 43 43 44 44 44 44 44 44 44
42 43 43 42 42 42 41 41 41 41 40 40 39 39 39 39 40 40 41 42 42 42 43 43 42 41 41 41 42 42 41 41 42 41 42 42 43 43 44 44 44 43
42 42 42 42 41 40 40 40 39 40 40 39 39 39 39 39 39 39 39 40 41 42 42 41 40 40 40 40 40 40 41 40 40 40 41 41 41 42 43 43 43 43
41 41 41 40 40 39 38 38 38 38 39 38 38 39 39 39 39 39 39 39 40 40 41 40 40 40 38 39 40 39 39 39 39 39 39 39 39 40 41 42 42 42
40 40 39 38 38 38 35 35 36 36 36 36 37 36 37 38 38 38 38 39 39 39 39 39 39 40 39 41 41 41 39 38 37 37 37 38 38 38 39 39 41 41
39 38 37 36 36 33 33 33 33 34 35 35 35 35 36 36 37 37 38 38 38 39 38 39 39 39 40 40 41 41 40 38 37 36 36 37 37 37 38 39 39 40
38 35 34 33 33 33 31 31 31 32 33 34 34 35 35 35 36 36 36 37 38 37 37 38 38 39 40 40 40 40 40 39 38 37 37 37 37 37 37 37 38 38
37 34 33 33 33 31 31 30 30 30 32 34 34 34 33 33 34 34 34 36 36 36 36 37 38 38 39 39 39 39 39 39 36 36 36 36 37 38 38 37 37 37
33 34 33 32 32 31 29 28 28 28 29 31 33 33 32 31 32 32 33 33 33 33 34 35 36 38 38 38 38 39 39 39 36 36 36 36 37 37 38 38 38 38
34 32 32 31 31 29 28 27 27 27 27 30 32 32 31 31 31 31 30 30 31 31 32 32 35 37 37 38 38 38 38 36 35 35 35 35 35 37 37 38 38 38
34 32 31 30 29 27 26 26 26 25 27 29 29 29 28 28 28 28 29 29 29 30 30 31 32 35 36 37 37 38 37 34 34 34 35 34 36 36 37 38 38 38
32 30 29 29 27 26 25 25 25 26 26 27 27 26 26 26 26 26 27 28 28 28 30 30 31 33 35 36 36 37 36 33 33 34 33 34 34 36 37 38 38 36
31 29 28 27 26 25 25 23 23 24 25 26 26 25 24 25 25 24 24 25 26 27 30 30 30 31 34 35 36 36 35 33 33 33 32 32 33 34 36 36 37 37
28 27 26 25 24 23 23 23 23 23 23 24 23 23 22 22 22 22 21 23 25 26 26 27 28 29 31 34 35 35 36 34 33 32 31 31 32 33 33 34 36 36

ECMWFNIL_sfc_temp_036.txt.gz
Temp
41 41 41 41 41 42 42 42 42 43 43 43 43 45 44 46 46 43 43 43 43 43 43 43 42 43 45 44 43 44 45 44 44 44 44 45 45 45 45 45 44 44
39 39 39 39 39 40 40 41 41 41 42 42 43 43 44 44 44 44 43 42 42 42 41 42 41 42 42 42 41 42 41 42 42 42 43 41 42 42 44 43 42 43
39 38 38 37 38 38 39 40 40 41 40 41 42 42 43 43 43 43 43 41 41 41 41 42 41 40 40 39 39 40 40 39 40 39 40 40 40 40 41 42 43 41
40 40 39 38 39 38 38 38 38 39 39 38 40 41 42 42 42 41 41 41 41 39 38 38 38 39 38 39 38 40 38 38 39 38 39 39 39 39 40 40 41 41
39 40 40 40 39 39 38 38 37 37 36 38 38 39 40 39 39 38 38 38 37 37 38 38 37 37 37 38 36 38 37 39 37 36 38 38 38 38 39 39 39 40
37 38 38 39 38 38 38 37 37 37 37 36 38 38 37 37 37 37 37 36 37 37 36 36 36 37 37 37 37 38 38 39 38 36 37 37 38 38 39 38 38 39
36 36 36 36 37 36 37 36 37 37 38 37 38 38 38 37 37 37 37 37 37 37 36 36 35 36 36 36 36 36 37 36 36 36 36 37 37 37 37 37 38 38
34 35 35 35 36 35 36 36 36 36 37 37 37 38 38 38 38 37 37 37 37 38 39 39 38 36 35 35 36 36 35 37 37 36 36 36 35 36 36 38 38 38
34 34 34 33 33 33 34 34 35 35 35 36 36 36 37 37 37 38 37 37 36 37 37 37 38 38 38 37 36 35 35 35 36 35 35 35 35 36 36 36 36 37
34 32 33 32 33 33 33 32 33 33 33 34 34 35 36 36 37 37 37 37 37 37 37 36 36 36 36 36 36 36 36 36 35 35 35 35 35 35 35 35 36 36
32 32 32 32 31 32 32 32 32 33 33 32 33 33 33 34 36 36 36 36 36 36 37 37 37 36 35 35 36 36 37 37 36 36 36 36 36 36 36 36 36 36
31 31 31 30 30 30 30 31 32 31 31 32 30 32 33 33 33 34 35 36 36 36 36 36 37 37 36 36 36 36 36 36 37 36 37 37 37 37 36 36 37 37
30 30 31 30 30 30 31 30 29 30 30 30 31 30 30 31 32 32 33 34 35 36 36 36 36 36 36 37 36 36 35 35 36 36 36 37 37 37 37 37 37 37
30 31 31 31 30 29 30 29 29 29 30 30 30 30 30 30 30 31 32 32 33 34 35 36 35 36 36 36 36 36 36 35 35 35 35 36 36 37 37 37 38 38
30 29 30 28 28 28 29 28 28 27 29 29 29 30 31 30 30 30 30 30 31 32 32 33 34 35 36 36 36 36 35 34 35 35 35 35 35 36 36 37 37 38
29 28 29 28 28 29 28 28 27 27 28 28 29 30 30 30 30 30 29 30 30 31 31 33 33 34 36 38 39 36 35 34 34 34 34 34 34 35 35 36 37 37
28 29 28 28 29 28 27 27 27 27 25 26 27 28 29 30 30 30 30 30 30 30 30 32 33 34 37 39 40 41 38 34 33 33 33 34 34 34 34 35 36 37
30 29 29 29 28 27 27 26 25 25 26 25 26 26 27 28 29 29 30 30 31 31 30 31 32 35 38 39 39 40 40 35 33 32 33 33 33 33 34 35 35 35
29 28 29 29 29 29 27 27 26 26 26 25 26 27 27 27 29 29 29 29 29 29 30 31 31 34 37 38 38 39 40 38 33 32 31 32 32 33 33 34 34 35
29 28 28 28 29 28 28 27 26 26 26 26 26 26 26 26 27 28 29 28 28 28 29 30 30 33 36 36 37 38 39 38 33 32 31 31 31 32 33 33 34 34
29 28 28 28 28 28 27 27 27 26 25 25 24 24 25 25 26 27 27 28 28 28 28 28 29 33 35 36 36 37 38 38 33 32 31 30 31 31 31 32 33 34
28 27 27 27 27 27 26 26 26 25 25 25 25 24 25 25 25 26 26 26 26 26 26 26 28 33 34 35 35 36 37 34 32 31 30 29 30 30 31 31 32 33
28 27 26 26 25 24 24 24 24 24 25 25 23 23 23 23 23 24 24 25 24 25 24 24 25 29 32 33 34 35 35 31 30 30 29 29 29 30 31 31 32 32
26 25 23 22 21 21 21 22 23 23 23 23 22 21 21 21 22 22 23 23 23 22 23 22 23 27 30 31 32 33 33 30 30 29 28 28 28 30 30 31 31 34
22 21 20 19 19 19 19 19 20 20 21 21 21 20 20 21 21 21 21 21 21 21 23 22 21 24 28 29 30 32 31 29 29 28 27 27 28 29 30 30 30 32
19 18 18 17 16 16 16 16 18 18 18 18 18 19 18 19 19 19 18 19 20 20 20 20 20 20 23 27 28 29 30 28 27 26 26 26 28 28 28 28 29 30

ECMWFNIL_sfc_temp_042.txt.gz
Temp
36 35 35 34 35 36 37 36 37 36 36 36 35 35 36 37 38 38 38 38 39 38 38 38 38 38 38 38 38 38 38 38 37 38 37 36 36 36 38 39 40 42
35 34 34 34 34 35 36 36 36 36 36 36 35 35 36 37 37 37 37 37 38 38 38 38 38 37 36 36 36 35 36 36 37 39 37 36 36 35 35 36 36 37
33 33 33 32 33 33 34 36 36 36 36 36 36 36 36 37 36 36 36 37 37 37 37 37 37 37 36 35 35 35 35 35 36 37 35 35 36 35 35 35 35 35
31 31 32 32 32 32 32 34 35 36 36 35 35 36 36 36 36 36 36 36 35 35 35 35 36 36 36 36 36 35 35 35 35 34 34 35 36 35 35 35 35 35
32 32 30 30 30 32 33 34 33 34 34 34 35 35 35 35 35 35 35 35 34 35 35 35 35 35 35 35 34 34 35 35 35 35 35 35 36 36 36 35 35 35
31 30 30 32 33 31 32 31 31 30 30 32 33 33 33 33 33 33 33 33 33 32 33 33 34 34 34 34 34 33 33 33 34 34 34 34 35 35 36 36 35 34
29 29 30 31 33 33 33 33 33 32 32 31 31 33 33 33 32 32 32 32 32 33 32 32 31 32 32 31 32 32 33 33 33 33 33 33 33 34 34 34 35 34
28 27 28 27 28 28 28 29 29 31 31 32 32 32 31 31 32 32 32 32 32 32 33 32 32 31 31 30 30 30 31 33 33 31 31 32 32 32 33 34 33 33
26 26 27 27 27 27 27 27 27 28 28 29 30 30 30 30 31 31 31 31 31 32 32 32 32 31 31 30 30 30 30 30 31 30 30 30 30 31 32 32 32 32
26 26 26 26 27 28 27 27 27 27 27 28 29 28 30 31 30 30 30 31 31 32 32 31 31 31 30 30 30 30 31 31 30 30 30 29 29 30 30 31 31 31
26 25 26 26 26 27 27 27 27 28 28 27 28 29 29 30 30 30 30 30 30 30 31 31 32 32 31 31 31 30 30 30 31 30 30 30 29 29 31 30 30 30
25 24 25 25 26 26 26 27 27 27 27 27 27 28 28 28 29 29 29 29 29 29 29 29 30 31 31 31 32 32 31 30 30 29 29 30 30 30 29 29 30 30
25 26 26 26 26 27 27 26 26 26 26 27 26 26 26 27 27 27 28 28 29 29 29 29 29 29 29 30 30 31 30 30 31 30 30 30 30 30 30 30 30 30
26 26 26 27 27 28 29 29 29 29 28 27 26 26 27 27 27 27 28 27 27 27 28 28 27 28 28 28 29 29 29 30 30 30 30 31 31 31 30 30 30 30
27 28 29 28 29 29 29 29 29 29 29 28 28 28 29 28 28 28 27 27 28 28 28 29 29 29 29 29 29 29 30 29 29 30 30 30 30 31 31 31 30 30
27 27 27 27 27 27 27 27 26 26 26 26 26 27 27 27 27 27 27 27 27 27 28 28 28 29 31 33 33 31 30 30 30 30 30 30 30 30 31 31 32 31
26 26 25 25 25 25 24 24 24 24 23 24 24 24 24 25 25 24 25 26 25 26 26 27 27 28 31 33 33 34 32 30 29 29 29 29 29 29 29 30 31 32
24 23 23 23 22 21 21 21 21 20 20 20 21 21 21 22 22 22 23 23 24 24 24 25 25 28 31 31 32 32 32 30 28 28 28 28 29 29 29 29 30 30
22 20 19 19 18 18 18 18 17 17 17 17 17 18 19 18 20 20 20 21 21 21 21 22 23 27 28 29 30 31 31 30 27 27 26 26 27 27 28 28 29 29
19 17 16 16 16 15 15 14 14 14 15 15 16 16 16 16 16 16 17 17 18 18 18 19 20 23 26 28 28 29 30 29 26 25 25 25 25 26 27 27 27 27
15 14 13 12 12 12 11 11 11 11 12 13 13 12 12 12 12 12 13 13 14 14 15 15 17 22 24 25 26 27 28 28 24 24 23 23 24 25 25 26 26 27
12 10 9 9 9 8 8 8 8 9 8 9 9 9 10 10 10 10 10 10 11 11 11 11 13 19 21 22 24 25 26 23 22 22 22 22 22 23 24 25 25 25
10 8 6 6 6 5 5 5 6 6 6 7 6 6 7 7 7 7 8 7 7 8 8 8 9 14 18 20 21 22 21 18 19 19 20 20 21 21 22 22 23 24
7 5 4 4 3 3 3 4 5 5 4 5 4 4 4 5 5 5 5 6 6 5 6 6 7 12 17 18 19 20 20 17 17 17 17 18 19 21 21 22 23 24
5 4 4 2 2 2 2 2 2 3 4 4 4 4 3 4 4 3 3 4 5 5 8 8 6 10 15 16 18 19 18 16 16 16 15 16 16 17 20 21 22 23
3 2 2 1 1 1 1 2 3 2 2 3 2 2 2 2 2 2 2 2 4 5 5 6 6 7 10 16 17 19 20 16 15 14 13 14 15 15 15 17 19 19

ECMWFNIL_sfc_temp_048.txt.gz
Temp
31 31 31 31 31 31 31 31 30 31 31 30 31 32 33 33 34 35 35 36 36 36 36 35 36 35 35 35 35 35 36 35 36 36 36 35 35 34 35 35 34 35
30 31 31 30 30 30 29 29 28 29 29 29 29 29 29 29 30 30 31 32 33 33 34 35 35 35 35 35 34 34 33 34 34 35 33 34 35 34 35 34 34 34
29 29 29 29 29 28 28 28 28 28 28 28 28 28 30 30 28 28 28 28 29 30 30 32 33 33 33 33 33 33 33 33 33 33 33 32 32 32 33 34 34 34
30 29 28 28 28 27 28 28 29 29 29 30 30 29 30 31 29 29 29 29 28 28 28 28 29 29 30 31 31 31 32 32 32 32 32 32 32 32 32 32 32 32
30 30 29 28 27 27 28 29 29 30 29 29 30 30 30 30 30 30 30 30 29 29 29 29 28 29 28 28 28 28 28 29 30 30 29 30 31 32 32 32 31 31
27 27 27 27 27 28 29 28 27 28 28 28 28 29 28 28 28 28 28 28 28 28 29 29 29 29 29 28 28 27 27 27 28 28 28 28 29 30 31 31 30 30
26 26 27 27 28 28 28 27 27 28 26 26 27 27 27 27 27 27 27 27 27 27 27 27 27 27 28 27 27 27 27 27 27 27 27 27 27 28 29 29 29 29
26 25 25 25 26 26 27 27 27 27 26 26 26 27 27 27 26 27 26 26 26 26 26 26 26 26 26 26 26 26 26 28 27 27 26 26 26 26 27 28 28 28
25 25 24 25 26 26 26 26 26 26 26 26 26 26 26 26 26 26 26 26 25 25 25 26 26 26 26 26 26 25 25 25 26 25 25 25 25 26 26 27 27 27
25 24 25 25 25 25 26 26 26 25 26 26 25 25 25 25 25 25 24 24 24 24 24 24 25 25 25 25 25 25 25 25 25 25 25 25 25 25 26 26 26 26
24 25 25 25 25 25 25 24 24 24 24 24 24 24 24 24 24 24 24 23 23 23 23 23 24 24 24 24 24 24 24 24 25 25 25 25 26 26 27 26 26 25
24 24 24 24 24 24 23 23 23 23 23 23 23 22 22 23 22 22 22 21 22 22 22 22 22 22 22 23 23 23 24 24 24 24 25 25 25 26 26 26 26 26
24 23 23 23 23 23 22 22 22 21 21 21 21 21 21 20 20 20 20 20 20 21 21 21 21 21 21 22 22 22 22 23 23 23 24 24 25 25 25 25 26 26
23 23 23 22 22 22 21 20 20 19 19 19 18 18 18 18 18 18 18 19 19 19 19 19 19 19 20 20 21 21 21 21 22 22 22 22 23 23 24 24 25 25
22 22 21 21 20 19 19 18 17 17 16 16 16 16 16 16 16 16 16 16 16 16 16 17 17 18 18 19 19 20 21 20 20 20 20 20 21 21 22 23 23 24
20 19 19 19 18 16 15 14 14 13 13 13 13 13 13 13 13 14 13 13 13 13 14 14 15 16 17 21 23 21 20 20 20 20 20 20 19 19 20 21 21 22
17 16 15 14 14 13 10 10 11 10 9 9 9 9 10 10 11 11 11 11 11 11 11 12 12 14 17 20 22 23 21 20 19 19 19 19 19 19 18 19 21 22
14 13 12 11 10 9 8 7 6 6 6 6 6 7 8 7 8 9 9 9 9 9 9 10 10 13 17 19 20 22 22 20 19 18 18 18 18 18 18 18 18 19
12 9 9 7 7 6 5 4 3 5 4 4 4 5 5 6 7 7 7 8 8 7 7 8 8 12 15 18 20 21 21 21 19 18 17 17 17 17 16 16 16 16
10 7 7 6 5 4 4 3 3 3 3 3 4 4 4 4 4 5 5 5 6 6 6 6 6 10 16 18 19 20 21 21 18 17 16 15 15 15 15 15 16 16
8 7 4 5 4 3 1 1 2 2 3 3 2 3 3 2 2 2 3 3 3 4 4 4 5 13 16 17 18 19 21 20 17 15 14 14 15 15 16 16 16 17
6 4 3 2 4 1 0 2 2 1 1 2 1 2 1 2 2 1 2 2 3 2 2 3 4 12 14 16 18 19 20 16 14 14 13 13 14 15 16 16 17 17
7 4 2 1 1 0 -1 -0 2 1 -0 -0 -1 1 1 0 -0 1 1 1 1 1 1 1 2 8 13 16 17 18 17 14 14 13 13 13 13 14 15 16 16 17
6 2 1 -1 -2 -3 -2 1 -1 -1 -2 -2 -1 -1 -1 -1 -0 -0 -0 0 0 -0 1 0 2 7 13 15 16 17 18 14 13 12 12 12 13 14 15 15 16 18
3 1 1 -1 -3 -1 -3 -3 -2 -2 -1 -2 -2 -2 -1 -1 -1 -1 -1 -1 -1 0 4 3 2 5 11 13 15 17 16 15 14 12 12 12 13 13 15 15 16 17
1 0 -1 -3 -1 -3 -4 -3 -2 -4 -3 -2 -2 -3 -3 -2 -2 -2 -3 -2 -1 -0 0 2 1 2 5 13 15 17 19 16 15 12 11 11 12 13 12 14 15 15